Location: Newark
(49.8969°N, 3.3422°E)
Time: 04:31:44
(UTC+00:00)

Vanguard 2 Rocket - Visible Passes

Search period start: 18 January 2020 00:00
Search period end: 28 January 2020 00:00
Orbit: 554 x 3326 km, 32.9° (Epoch: 17 January)

Date Brightness Start Highest point End Pass type
(mag) Time Alt. Az. Time Alt. Az. Time Alt. Az.
18 Jan 9.8 05:46:00 10° SSE 05:48:05 11° SE 05:50:26 10° SE visible
19 Jan 9.4 06:55:18 10° SSW 07:00:24 21° SSE 07:07:40 10° ESE visible
20 Jan 9.4 05:57:58 10° S 06:01:18 15° SSE 06:05:30 10° ESE visible
22 Jan 9.2 06:10:59 10° SSW 06:14:43 17° SSE 06:19:36 10° ESE visible
23 Jan 9.3 05:14:23 10° SSE 05:15:45 11° SSE 05:17:13 10° SE visible
24 Jan 9.0 06:24:30 10° SSW 06:28:16 18° SSE 06:33:16 10° SE visible
25 Jan 9.0 05:26:56 10° S 05:29:13 13° SSE 05:31:53 10° SE visible
26 Jan 8.9 06:38:24 10° SSW 06:41:56 17° S 06:46:33 10° SE visible
27 Jan 8.8 05:40:25 10° SSW 05:42:50 13° SSE 05:45:41 10° SE visible
